Location: Newark
(63.1158°N, 8.1461°E)
Time: 10:42:04
(UTC+00:00)

Envisat - Pass Details

Date: 20 December 2019
Orbit: 764 x 766 km, 98.1° (Epoch: 24 January)

Event Time Altitude Azimuth Distance (km) Brightness Sun altitude
Rises 05:03:14 0° 19° (NNE) 3,250 6.4 -23.2°
Reaches altitude 10° 05:06:06 10° 35° (NE) 2,319 5.8 -22.8°
Maximum altitude 05:09:59 21° 85° (E) 1,660 5.5 -22.4°
Drops below altitude 10° 05:13:51 10° 135° (SE) 2,306 6.2 -22.0°
Sets 05:16:41 0° 151° (SSE) 3,228 6.8 -21.7°
